Weather observations for the past three days for
Walla Walla Regional Airport
| Date | Time (pdt) | Wind (mph) | Vis. (mi.) | Weather | Sky Cond. | Temperature (ºF) | Relative Humidity | Wind Chill (°F) | Heat Index (°F) | Pressure | Precipitation (in) | ||||||
|---|---|---|---|---|---|---|---|---|---|---|---|---|---|---|---|---|---|
| Air | Dwpt | 6 hour | altimeter (in) | sea level (mb) | 1 hr | 3 hr | 6 hr | ||||||||||
| Max. | Min. | ||||||||||||||||
| 07 | 21:53 | SE 7 | 10.00 | Fair | CLR | 62.1 | 34 | 35% | 29.91 | 1012.6 | |||||||
| 07 | 20:53 | SE 8 | 10.00 | Fair | CLR | 64 | 35.1 | 34% | 29.91 | 1012.6 | |||||||
| 07 | 19:53 | S 3 | 10.00 | Fair | CLR | 68 | 32 | 26% | 29.9 | 1012.2 | |||||||
| 07 | 18:53 | SW 6 | 10.00 | Fair | CLR | 73 | 27 | 18% | 29.9 | 1012.1 | |||||||
| 07 | 17:53 | W 5 | 10.00 | Fair | CLR | 75 | 30.9 | 20% | 76 | 29.91 | 1012.5 | ||||||
| 07 | 16:53 | Calm | 10.00 | Fair | CLR | 75 | 32 | 75.9 | 68 | 21% | 76 | 29.92 | 1012.6 | ||||
| 07 | 15:53 | W 7 G 17 | 10.00 | Fair | CLR | 75 | 32 | 21% | 76 | 29.93 | 1013.2 | ||||||
| 07 | 14:53 | S 10 G 20 | 10.00 | Fair | CLR | 73.9 | 34 | 23% | 29.95 | 1013.9 | |||||||
| 07 | 13:53 | S 15 G 26 | 10.00 | Fair | CLR | 73 | 37 | 27% | 29.97 | 1014.5 | |||||||
| 07 | 12:53 | S 13 | 10.00 | Fair | CLR | 72 | 39.9 | 31% | 29.98 | 1014.9 | |||||||
| 07 | 11:53 | S 13 | 10.00 | Fair | CLR | 69.1 | 39.9 | 35% | 29.99 | 1015.3 | |||||||
| 07 | 10:53 | SW 16 | 10.00 | Fair | CLR | 68 | 41 | 68 | 54 | 38% | 30 | 1015.6 | |||||
| 07 | 09:53 | S 14 G 22 | 10.00 | Fair | CLR | 63 | 45 | 52% | 30.01 | 1016.1 | |||||||
| 07 | 08:53 | S 16 | 10.00 | Fair | CLR | 61 | 44.1 | 54% | 30.01 | 1016.1 | |||||||
| 07 | 07:53 | SW 14 | 10.00 | Fair | CLR | 60.1 | 44.1 | 56% | 30.02 | 1016.0 | |||||||
| 07 | 06:53 | S 7 | 10.00 | Fair | CLR | 55 | 46 | 72% | 30 | 1015.5 | |||||||
| 07 | 05:53 | S 7 | 10.00 | Fair | CLR | 55 | 46 | 72% | 29.99 | 1015.1 | |||||||
| 07 | 04:53 | S 14 | 10.00 | Fair | CLR | 55.9 | 45 | 63 | 55 | 67% | 29.98 | 1014.7 | |||||
| 07 | 03:53 | S 9 | 10.00 | Fair | CLR | 55.9 | 45 | 67% | 29.99 | 1015.0 | |||||||
| 07 | 02:53 | S 16 | 10.00 | Fair | CLR | 57.9 | 45 | 62% | 29.98 | 1014.7 | |||||||
| 07 | 01:53 | S 13 | 10.00 | Fair | CLR | 57.9 | 44.1 | 60% | 29.98 | 1014.5 | |||||||
| 07 | 00:53 | S 13 | 10.00 | Fair | CLR | 60.1 | 44.1 | 56% | 29.97 | 1014.4 | |||||||
| 06 | 23:53 | S 10 | 10.00 | Fair | CLR | 61 | 43 | 52% | 29.96 | 1014.0 | |||||||
| 06 | 22:53 | S 12 | 10.00 | Fair | CLR | 64 | 43 | 80.1 | 64 | 46% | 29.96 | 1013.9 | |||||
| 06 | 21:53 | S 14 | 10.00 | Mostly Cloudy | BKN100 | 66.9 | 45 | 45% | 29.95 | 1013.8 | |||||||
| 06 | 20:53 | S 14 | 10.00 | Fair | CLR | 69.1 | 46 | 44% | 29.93 | 1013.0 | |||||||
| 06 | 19:53 | S 13 | 10.00 | A Few Clouds | FEW100 | 73 | 46.9 | 40% | 29.91 | 1012.2 | |||||||
| 06 | 18:53 | S 14 G 22 | 10.00 | Fair | CLR | 75 | 48 | 39% | 77 | 29.88 | 1011.5 | ||||||
| 06 | 17:53 | SW 15 | 10.00 | Fair | CLR | 78.1 | 48 | 35% | 78 | 29.88 | 1011.2 | ||||||
| 06 | 16:53 | SW 17 | 10.00 | Fair | CLR | 80.1 | 46.9 | 82 | 73 | 31% | 79 | 29.88 | 1011.2 | ||||
| 06 | 15:53 | W 14 | 10.00 | Fair | CLR | 81 | 46.9 | 30% | 80 | 29.89 | 1011.4 | ||||||
| 06 | 14:53 | W 15 | 10.00 | Fair | CLR | 81 | 43 | 26% | 80 | 29.91 | 1012.1 | ||||||
| 06 | 13:53 | SW 17 | 10.00 | Fair | CLR | 82 | 46 | 28% | 80 | 29.91 | 1012.3 | ||||||
| 06 | 12:53 | SW 16 G 26 | 10.00 | Fair | CLR | 80.1 | 48 | 33% | 79 | 29.92 | 1012.3 | ||||||
| 06 | 11:53 | SW 10 G 22 | 10.00 | Fair | CLR | 77 | 50 | 39% | 78 | 29.94 | 1013.1 | ||||||
| 06 | 10:53 | SW 15 G 22 | 10.00 | Fair | CLR | 73.9 | 48 | 73.9 | 55.9 | 40% | 29.96 | 1014.1 | |||||
| 06 | 09:53 | S 13 | 10.00 | Fair | CLR | 71.1 | 48.9 | 46% | 29.96 | 1014.1 | |||||||
| 06 | 08:53 | S 14 | 10.00 | Fair | CLR | 68 | 48.9 | 51% | 29.96 | 1014.2 | |||||||
| 06 | 07:53 | S 13 | 10.00 | Fair | CLR | 64.9 | 48 | 54% | 29.96 | 1014.0 | |||||||
| 06 | 06:53 | SW 9 | 10.00 | Fair | CLR | 62.1 | 46.9 | 58% | 29.95 | 1013.5 | |||||||
| 06 | 05:53 | SW 8 | 10.00 | Fair | CLR | 61 | 46 | 58% | 29.92 | 1012.5 | |||||||
| 06 | 04:53 | SE 3 | 10.00 | Fair | CLR | 55.9 | 46 | 63 | 55.9 | 70% | 29.91 | 1012.2 | |||||
| 06 | 03:53 | S 9 | 10.00 | Fair | CLR | 61 | 44.1 | 54% | 29.9 | 1012.0 | |||||||
| 06 | 02:53 | SE 5 | 10.00 | Fair | CLR | 59 | 42.1 | 54% | 29.89 | 1011.7 | |||||||
| 06 | 01:53 | Calm | 10.00 | Fair | CLR | 59 | 42.1 | 54% | 29.87 | 1011.1 | |||||||
| 06 | 00:53 | SE 10 | 10.00 | Fair | CLR | 63 | 41 | 45% | 29.87 | 1010.8 | |||||||
| 05 | 23:53 | E 9 | 10.00 | Fair | CLR | 63 | 41 | 45% | 29.86 | 1010.7 | |||||||
| 05 | 22:53 | Calm | 10.00 | Fair | CLR | 63 | 43 | 80.1 | 61 | 48% | 29.86 | 1010.6 | |||||
| 05 | 21:53 | E 7 | 10.00 | Fair | CLR | 64.9 | 45 | 49% | 29.85 | 1010.2 | |||||||
| 05 | 20:53 | E 7 | 10.00 | Fair | CLR | 64.9 | 46.9 | 52% | 29.84 | 1010.0 | |||||||
| 05 | 19:53 | E 8 | 10.00 | Fair | CLR | 71.1 | 46.9 | 42% | 29.83 | 1009.5 | |||||||
| 05 | 18:53 | NE 7 | 10.00 | Fair | CLR | 77 | 46 | 33% | 78 | 29.83 | 1009.4 | ||||||
| 05 | 17:53 | N 10 | 10.00 | Fair | CLR | 80.1 | 44.1 | 28% | 79 | 29.83 | 1009.3 | ||||||
| 05 | 16:53 | NE 8 | 10.00 | Partly Cloudy | SCT085 | 80.1 | 48.9 | 80.1 | 71.1 | 34% | 79 | 29.83 | 1009.5 | ||||
| 05 | 15:53 | E 6 | 10.00 | Fair | CLR | 79 | 48 | 34% | 79 | 29.84 | 1009.8 | ||||||
| 05 | 14:53 | W 3 | 10.00 | Fair | CLR | 77 | 48.9 | 37% | 78 | 29.85 | 1010.2 | ||||||
| 05 | 13:53 | Vrbl 3 | 10.00 | Fair | CLR | 77 | 50 | 39% | 78 | 29.86 | 1010.7 | ||||||
| 05 | 12:53 | NW 8 | 10.00 | Fair | CLR | 73.9 | 52 | 46% | 29.87 | 1010.9 | |||||||
| 05 | 11:53 | W 8 | 10.00 | Fair | CLR | 72 | 52 | 50% | 29.87 | 1011.2 | |||||||
| 05 | 10:53 | SW 8 | 10.00 | Fair | CLR | 71.1 | 51.1 | 72 | 59 | 49% | 29.88 | 1011.3 | |||||
| 05 | 09:53 | W 9 | 10.00 | Fair | CLR | 70 | 51.1 | 51% | 29.87 | 1010.9 | |||||||
| 05 | 08:53 | SW 9 | 10.00 | Fair | CLR | 68 | 50 | 53% | 29.86 | 1010.7 | |||||||
| 05 | 07:53 | SW 10 | 10.00 | Fair | CLR | 66 | 50 | 56% | 29.85 | 1010.1 | |||||||
| 05 | 06:53 | S 7 | 10.00 | Fair | CLR | 62.1 | 48.9 | 62% | 29.83 | 1009.5 | |||||||
| 05 | 05:53 | S 7 | 10.00 | Fair | CLR | 59 | 46.9 | 64% | 29.81 | 1008.8 | |||||||
| 05 | 04:53 | S 7 | 10.00 | Fair | CLR | 60.1 | 46.9 | 64 | 59 | 62% | 29.79 | 1008.2 | |||||
| 05 | 03:53 | SE 6 | 10.00 | Fair | CLR | 61 | 46 | 58% | 29.78 | 1007.7 | |||||||
| 05 | 02:53 | S 8 | 10.00 | Fair | CLR | 63 | 46 | 54% | 29.76 | 1007.1 | |||||||
| 05 | 00:53 | SW 8 | 10.00 | Fair | CLR | 62.1 | 46 | 56% | 29.74 | 1006.5 | |||||||
| 04 | 23:53 | E 12 | 10.00 | Fair | CLR | 61 | 46.9 | 60% | 29.72 | 1005.8 | |||||||
| 04 | 22:53 | E 10 | 10.00 | Fair | CLR | 63 | 48 | 82.9 | 61 | 58% | 29.71 | 1005.5 | |||||
| Date | Time (pdt) | Wind (mph) | Vis. (mi.) | Weather | Sky Cond. | Air | Dwpt | Max. | Min. | Relative Humidity | Wind Chill (°F) | Heat Index (°F) | altimeter (in) | sea level (mb) | 1 hr | 3 hr | 6 hr |
| 6 hour | |||||||||||||||||
| Temperature (ºF) | Pressure | Precipitation (in) | |||||||||||||||